CW9648 Weather Reports


Display with metric or nautical units.
time (UTC)temp
F
wind
direction
speed
MPH
gust
MPH
rain 1hr
in
rain 24hr
in
rain mn
in
humidity
%
barometer
mb
20260505023004 72 189 2.0 6.0 0.00 0.00 0.00 77 1011.4
20260505022504 72 189 2.0 6.0 0.00 0.00 0.00 76 1011.3
20260505022004 72 188 2.0 6.0 0.00 0.00 0.00 76 1011.2
20260505021504 72 203 2.0 6.0 0.00 0.00 0.00 76 1011.1
20260505021004 72 212 2.0 4.0 0.00 0.00 0.00 75 1011.1
20260505020525 72 200 2.0 11.0 0.00 0.00 0.00 75 1011.0
20260505020004 72 192 2.0 11.0 0.00 0.00 0.00 75 1010.9
20260505015504 72 184 2.0 7.0 0.00 0.00 0.00 74 1010.8
20260505015004 73 186 2.0 6.0 0.00 0.00 0.00 74 1010.9
20260505014504 73 193 2.0 6.0 0.00 0.00 0.00 74 1011.0
20260505014004 73 193 2.0 5.0 0.00 0.00 0.00 73 1011.0
20260505013525 73 195 2.0 5.0 0.00 0.00 0.00 73 1010.9
20260505013007 73 199 2.0 5.0 0.00 0.00 0.00 73 1010.7
20260505012504 73 193 1.0 5.0 0.00 0.00 0.00 73 1010.6
20260505012025 74 188 2.0 7.0 0.00 0.00 0.00 72 1010.6
20260505011504 74 195 2.0 7.0 0.00 0.00 0.00 72 1010.5
20260505011025 74 203 1.0 5.0 0.00 0.00 0.00 71 1010.6
20260505010504 74 196 2.0 5.0 0.00 0.00 0.00 70 1010.6
20260505010004 74 184 2.0 6.0 0.00 0.00 0.00 70 1010.6
20260505005503 75 190 2.0 6.0 0.00 0.00 0.00 69 1010.6
20260505005025 75 198 2.0 8.0 0.00 0.00 0.00 69 1010.7
20260505004504 75 193 2.0 8.0 0.00 0.00 0.00 69 1010.6
20260505004004 75 185 2.0 7.0 0.00 0.00 0.00 69 1010.7
20260505003504 75 186 2.0 7.0 0.00 0.00 0.00 69 1010.6
20260505003003 76 189 2.0 4.0 0.00 0.00 0.00 68 1010.6
20260505002504 76 183 2.0 7.0 0.00 0.00 0.00 68 1010.5
20260505002004 76 184 2.0 7.0 0.00 0.00 0.00 67 1010.7
20260505001504 76 191 2.0 11.0 0.00 0.00 0.00 67 1010.8
20260505001004 76 184 3.0 11.0 0.00 0.00 0.00 67 1010.8
20260505000525 77 181 2.0 11.0 0.00 0.00 0.00 66 1010.9
20260505000004 77 191 3.0 8.0 0.00 0.00 0.00 66 1010.8
20260504235504 77 360 2.0 8.0 0.00 0.00 0.00 65 1010.8
20260504235004 78 188 2.0 7.0 0.00 0.00 0.00 65 1010.7
20260504234504 78 181 3.0 10.0 0.00 0.00 0.00 64 1010.7
20260504234004 79 177 3.0 10.0 0.00 0.00 0.00 63 1010.8
20260504233503 79 177 2.0 6.0 0.00 0.00 0.00 62 1010.9
20260504233024 79 180 2.0 6.0 0.00 0.00 0.00 62 1010.8
20260504232504 79 173 2.0 6.0 0.00 0.00 0.00 61 1010.9
20260504232025 79 171 2.0 5.0 0.00 0.00 0.00 60 1011.1
20260504231525 80 175 1.0 5.0 0.00 0.00 0.00 61 1011.0
20260504231004 80 177 2.0 5.0 0.00 0.00 0.00 61 1011.1
20260504230524 80 180 2.0 5.0 0.00 0.00 0.00 61 1011.1
20260504230004 80 171 2.0 6.0 0.00 0.00 0.00 60 1011.1
20260504225504 80 167 3.0 7.0 0.00 0.00 0.00 60 1011.2
20260504225004 80 170 2.0 7.0 0.00 0.00 0.00 59 1011.2
20260504224504 81 174 3.0 7.0 0.00 0.00 0.00 58 1011.3
20260504224025 81 173 3.0 7.0 0.00 0.00 0.00 58 1011.3
20260504223504 81 178 2.0 7.0 0.00 0.00 0.00 56 1011.3
20260504223025 82 175 3.0 8.0 0.00 0.00 0.00 55 1011.4
20260504222525 82 169 3.0 8.0 0.00 0.00 0.00 55 1011.5
20260504222025 82 187 3.0 9.0 0.00 0.00 0.00 56 1011.6
20260504221504 82 197 3.0 9.0 0.00 0.00 0.00 52 1011.7
20260504221007 82 181 2.0 7.0 0.00 0.00 0.00 55 1011.6
20260504220504 82 168 3.0 9.0 0.00 0.00 0.00 54 1011.8
20260504220025 82 173 3.0 9.0 0.00 0.00 0.00 55 1011.8
20260504215504 82 189 3.0 10.0 0.00 0.00 0.00 56 1011.8
20260504215004 82 181 3.0 11.0 0.00 0.00 0.00 54 1011.6
20260504214504 82 165 4.0 12.0 0.00 0.00 0.00 55 1011.6
20260504214025 81 162 5.0 12.0 0.00 0.00 0.00 56 1011.8
20260504213504 81 159 5.0 11.0 0.00 0.00 0.00 54 1011.9
20260504213003 82 155 5.0 14.0 0.00 0.00 0.00 55 1012.0
20260504212525 82 165 4.0 14.0 0.00 0.00 0.00 53 1012.2
20260504212004 83 189 2.0 9.0 0.00 0.00 0.00 53 1012.4
20260504211504 82 203 3.0 8.0 0.00 0.00 0.00 53 1012.4
20260504211004 82 213 3.0 7.0 0.00 0.00 0.00 52 1012.6
20260504210504 82 216 3.0 7.0 0.00 0.00 0.00 52 1012.6
20260504210004 82 199 3.0 9.0 0.00 0.00 0.00 50 1012.6
20260504205525 82 181 3.0 9.0 0.00 0.00 0.00 52 1012.6
20260504205004 82 166 3.0 8.0 0.00 0.00 0.00 54 1012.6
20260504204504 82 162 4.0 10.0 0.00 0.00 0.00 54 1012.7
20260504204003 81 160 6.0 10.0 0.00 0.00 0.00 53 1012.7
20260504203503 82 164 5.0 13.0 0.00 0.00 0.00 53 1012.9
20260504203003 82 160 4.0 13.0 0.00 0.00 0.00 55 1013.0
20260504202524 82 176 4.0 10.0 0.00 0.00 0.00 52 1013.0
20260504202003 82 218 3.0 6.0 0.00 0.00 0.00 51 1013.4
20260504201504 82 170 3.0 10.0 0.00 0.00 0.00 53 1013.3
20260504201003 82 187 3.0 10.0 0.00 0.00 0.00 53 1013.4
20260504200504 82 208 4.0 10.0 0.00 0.00 0.00 51 1013.5
20260504200004 82 201 4.0 10.0 0.00 0.00 0.00 49 1013.6
20260504195504 82 214 3.0 9.0 0.00 0.00 0.00 52 1013.6
20260504195003 82 181 3.0 10.0 0.00 0.00 0.00 50 1013.6
20260504194504 82 151 3.0 10.0 0.00 0.00 0.00 51 1013.6
20260504194004 81 156 4.0 11.0 0.00 0.00 0.00 51 1013.8
20260504193525 81 156 4.0 11.0 0.00 0.00 0.00 48 1013.9
20260504193003 81 158 4.0 10.0 0.00 0.00 0.00 52 1014.0
20260504192503 82 170 3.0 9.0 0.00 0.00 0.00 49 1014.1
20260504192003 81 165 4.0 8.0 0.00 0.00 0.00 51 1014.2
20260504191504 81 182 3.0 8.0 0.00 0.00 0.00 50 1014.2
20260504191025 81 184 3.0 9.0 0.00 0.00 0.00 48 1014.4
20260504190504 81 162 4.0 11.0 0.00 0.00 0.00 50 1014.5
20260504190004 80 157 6.0 11.0 0.00 0.00 0.00 51 1014.5
20260504185504 80 154 5.0 12.0 0.00 0.00 0.00 50 1014.6
20260504185004 80 155 3.0 12.0 0.00 0.00 0.00 50 1014.7
20260504184504 80 164 3.0 9.0 0.00 0.00 0.00 49 1014.7
20260504184004 80 158 4.0 11.0 0.00 0.00 0.00 50 1014.7
20260504183503 79 160 5.0 11.0 0.00 0.00 0.00 50 1014.7
20260504183003 80 161 3.0 8.0 0.00 0.00 0.00 51 1014.8
20260504182503 79 153 4.0 11.0 0.00 0.00 0.00 52 1015.0
20260504182003 79 127 4.0 11.0 0.00 0.00 0.00 51 1015.0
20260504181503 79 20 3.0 9.0 0.00 0.00 0.00 52 1015.2
20260504181024 79 47 4.0 11.0 0.00 0.00 0.00 53 1015.4
20260504180503 79 356 3.0 11.0 0.00 0.00 0.00 53 1015.5
20260504180004 79 1 4.0 11.0 0.00 0.00 0.00 53 1015.6
20260504175503 78 360 4.0 11.0 0.00 0.00 0.00 53 1015.8
20260504175024 78 360 4.0 9.0 0.00 0.00 0.00 50 1015.8
20260504174524 78 1 3.0 8.0 0.00 0.00 0.00 54 1015.8
20260504174024 78 360 3.0 9.0 0.00 0.00 0.00 53 1015.8
20260504173503 77 359 3.0 9.0 0.00 0.00 0.00 52 1015.9
20260504173003 77 331 3.0 8.0 0.00 0.00 0.00 50 1015.9
20260504172524 78 348 4.0 10.0 0.00 0.00 0.00 54 1016.0
20260504172003 77 5 5.0 11.0 0.00 0.00 0.00 53 1016.1
20260504171504 77 2 4.0 11.0 0.00 0.00 0.00 52 1016.1
20260504171003 76 358 3.0 8.0 0.00 0.00 0.00 56 1016.1
20260504170531 76 358 3.0 8.0 0.00 0.00 0.00 51 1016.1
20260504151006 72 158 4.0 11.0 0.00 0.00 0.00 65 1017.1
20260504150524 72 155 3.0 11.0 0.00 0.00 0.00 65 1017.2
20260504141003 68 192 2.0 5.0 0.00 0.00 0.00 70 1017.4
20260504140524 68 179 3.0 8.0 0.00 0.00 0.00 71 1017.4
20260504130503 61 167 1.0 5.0 0.00 0.00 0.00 92 1017.2
20260504110525 56 0 0.0 0.0 0.00 0.01 0.00 89 1016.9
20260504100525 59 172 0.0 1.0 0.00 0.01 0.00 83 1017.1
20260504082004 62 360 2.0 5.0 0.00 0.01 0.00 78 1017.1
20260504081504 62 360 2.0 4.0 0.00 0.01 0.00 78 1017.2
20260504081004 62 360 2.0 5.0 0.00 0.01 0.00 78 1017.3
20260504080504 62 360 2.0 5.0 0.00 0.01 0.00 78 1017.2
20260504050504 63 151 1.0 4.0 0.00 0.01 0.00 77 1019.1
20260504050025 63 149 1.0 4.0 0.00 0.01 0.00 76 1019.0
20260504045525 63 126 1.0 3.0 0.00 0.01 0.01 77 1018.9
20260504045004 63 110 1.0 2.0 0.00 0.01 0.01 78 1018.9
20260504044525 63 112 1.0 2.0 0.00 0.01 0.01 77 1018.9
20260504044004 63 163 1.0 4.0 0.00 0.01 0.01 76 1019.1
20260504043504 63 156 1.0 3.0 0.00 0.01 0.01 75 1019.1
20260504043025 63 150 1.0 3.0 0.00 0.01 0.01 75 1019.1
20260504042525 63 141 0.0 2.0 0.00 0.01 0.01 77 1019.1
20260504042004 64 127 0.0 2.0 0.00 0.01 0.01 76 1019.1
20260504041504 64 131 0.0 2.0 0.00 0.01 0.01 76 1018.9
20260504041004 65 167 0.0 2.0 0.00 0.01 0.01 73 1018.9
20260504040504 65 166 0.0 3.0 0.00 0.01 0.01 72 1019.1
20260504040025 65 158 1.0 3.0 0.00 0.01 0.01 71 1019.0
20260504035525 65 155 1.0 4.0 0.00 0.01 0.01 72 1018.8
20260504035004 65 154 1.0 4.0 0.00 0.01 0.01 73 1018.9
20260504034504 65 142 1.0 4.0 0.00 0.01 0.01 73 1019.1
20260504034004 65 110 1.0 3.0 0.00 0.01 0.01 74 1019.0
20260504033504 64 150 1.0 4.0 0.00 0.01 0.01 75 1018.9
20260504033025 64 141 1.0 4.0 0.00 0.01 0.01 77 1019.0
20260504032532 64 353 1.0 3.0 0.00 0.01 0.01 79 1019.0
20260504032004 63 347 1.0 4.0 0.00 0.01 0.01 84 1018.9
20260504031504 61 355 1.0 8.0 0.00 0.01 0.01 87 1018.8
20260504031004 61 355 0.0 8.0 0.00 0.01 0.01 88 1018.8
20260504030504 61 0 0.0 0.0 0.00 0.01 0.01 88 1018.9
20260504030004 61 0 0.0 0.0 0.00 0.01 0.01 88 1018.7
20260504025504 61 0 0.0 0.0 0.00 0.01 0.01 87 1018.7
20260504025004 61 0 0.0 0.0 0.00 0.01 0.01 87 1018.8
20260504024525 61 0 0.0 0.0 0.00 0.01 0.01 86 1018.7
20260504024004 62 0 0.0 0.0 0.00 0.01 0.01 86 1018.8
20260504023504 62 0 0.0 0.0 0.00 0.01 0.01 86 1018.8
20260504023025 62 0 0.0 0.0 0.00 0.01 0.01 86 1018.8